Location: *
(43.2048°N, 0.1612°E)
Time: 20:11:06
(UTC+00:00)

Cosmos 1709 Rocket - Pass Details

Date: 30 September 2023
Orbit: 947 x 1001 km, 82.9° (Epoch: 06 December)

Event Time Altitude Azimuth Distance (km) Brightness Sun altitude
Rises 05:01:47 0° 184° (S) 3,706 6.9 -10.5°
Reaches altitude 10° 05:04:17 10° 184° (S) 2,763 6.3 -10.1°
Maximum altitude 05:10:40 86° 97° (E) 1,010 4.2 -8.9°
Drops below altitude 10° 05:17:04 10° 9° (N) 2,776 6.6 -7.8°
Sets 05:19:36 0° 9° (N) 3,725 7.2 -7.3°
